Location: Borderline Observatory
(42.7345°N, 72.8696°W)
Time: 21:58:25
(UTC-05:00)

Daily predictions for brighter satellites

Satellite Brightness Start Highest point End
(mag) Time Altitude Azimuth Time Altitude Azimuth Time Altitude Azimuth
Cosmos 1300 2.7 17:16:25 10° N 17:20:14 61° E 17:24:01 10° SSE
Thor Agena Rocket 3.6 17:15:58 10° NNE 17:21:11 62° ESE 17:26:16 10° S
AQUARIUS 4.2 17:17:54 10° SSE 17:22:24 90° WNW 17:26:56 10° NNW
OTV 4 3.9 17:22:22 10° SSW 17:22:38 10° SSW 17:22:53 10° SSW
SL-16 R/B 2.9 17:17:50 10° SSE 17:22:52 34° ESE 17:27:54 10° NE
COSMOS 2428 4.1 17:19:33 10° WSW 17:24:48 37° WNW 17:30:05 10° N
Meteor 2-10 4.2 17:20:01 10° N 17:25:01 51° ENE 17:30:08 10° SSE
SPOT 3 Rocket 3.6 17:20:34 10° SSE 17:25:43 85° ENE 17:30:56 10° NNW
Cosmos 44 Rocket 4.2 17:21:49 10° SW 17:26:48 50° NW 17:31:42 10° NNE
CZ-3A R/B 3.2 17:24:39 10° NW 17:29:55 42° NNE 17:34:45 10° E
CZ-4C R/B 4.5 17:30:54 10° NNW 17:33:41 13° NNE 17:36:36 10° NE
Cosmos 2297 3.8 17:29:17 10° NNW 17:34:54 55° ENE 17:40:30 10° SE
SL-14 R/B 3.2 17:32:03 10° S 17:35:59 82° E 17:40:00 10° N
Cosmos 304 Rocket 4.0 17:33:18 10° S 17:37:58 51° ESE 17:42:37 10° NNE
Cosmos 1484 Rocket 2.8 17:34:11 10° SSE 17:38:05 61° ENE 17:42:03 10° N
Resurs 01 Rocket 3.4 17:36:24 10° E 17:38:17 13° ENE 17:40:11 10° NE
Cosmos 1340 Rocket 2.9 17:36:03 10° S 17:39:51 52° E 17:43:41 10° NNE
Cosmos 2279 Rocket 4.0 17:37:15 10° N 17:43:28 70° E 17:49:41 10° SSE
Meteor 1-28 Rocket 3.9 17:41:44 10° NNE 17:45:08 33° E 17:48:32 10° SSE
Lacrosse 4 Rocket 2.5 17:42:16 10° N 17:45:34 23° NE 17:48:48 10° ESE
Cosmos 1151 Rocket 3.6 17:42:07 10° NNW 17:46:21 62° W 17:50:35 10° S
Cosmos 372 Rocket 4.4 17:46:03 10° NNW 17:51:07 66° WSW 17:56:09 10° S
IDEFIX/ARIANE 42P 4.0 17:47:43 10° SSW 17:52:38 42° W 17:57:38 10° NNW
Cosmos 1869 4.5 17:50:36 10° NNE 17:53:49 22° ENE 17:57:01 10° SE
Cosmos 540 Rocket 4.1 17:49:52 10° SW 17:54:57 56° WNW 18:00:03 10° NNE
Aureole 2 Rocket 3.2 17:51:18 10° SSW 17:55:04 63° WNW 17:59:11 10° NNE
NOAA 12 4.3 17:54:43 10° SE 17:59:44 49° ENE 18:04:48 10° N
USA 215 3.5 17:53:42 10° ESE 17:59:57 50° NNE 18:06:13 10° NW
Cosmos 2058 3.2 17:57:52 10° SSW 18:01:56 68° W 18:06:02 10° N
Nadezhda 4 Rocket 4.2 17:57:43 10° SSE 18:03:43 50° E 18:09:48 10° NNE
ATLAS 5 CENTAUR R/B 4.0 18:01:06 10° N 18:04:08 14° NNE 18:05:48 13° NE
Lacrosse 5 3.8 18:02:27 10° NW 18:05:33 16° N 18:08:06 12° NE
Cosmos 1805 Rocket 3.5 18:01:07 10° S 18:05:34 76° E 18:10:02 10° NNE
SKYMED 2 3.6 18:02:40 10° NNE 18:07:03 88° WNW 18:11:23 10° SSW
Cosmos 2242 Rocket 4.1 18:03:05 10° N 18:07:09 34° ENE 18:11:13 10° SE
Cosmos 1900 4.4 18:03:15 10° NNW 18:08:14 82° WSW 18:13:14 10° SSE
Cosmos 1461 2.9 18:04:30 10° SW 18:08:41 79° NW 18:12:04 15° NNE
Cosmos 1626 2.0 18:10:57 10° S 18:14:41 75° E 18:18:26 10° NNE
Aureole 1 Rocket 4.1 18:11:38 10° S 18:16:55 53° ESE 18:23:51 10° NNE
Sich 1 3.0 18:14:13 10° S 18:18:36 67° E 18:23:01 10° NNE
Cosmos 2219 Rocket 4.2 18:15:55 10° WSW 18:20:28 25° NW 18:25:03 10° N
Lacrosse 5 rocket 3.8 18:18:00 10° WNW 18:21:00 22° SW 18:24:07 10° S
Cosmos 1356 Rocket 3.2 18:18:00 10° S 18:21:59 87° E 18:26:00 10° N
Cosmos 1943 Rocket 4.0 18:19:44 10° NNE 18:21:10 12° NNE 18:21:10 12° NNE
ALOS 2.7 18:20:12 10° SE 18:24:29 38° ENE 18:28:49 10° N
Cosmos 1092 Rocket 4.1 18:19:56 10° SSE 18:26:04 55° E 18:32:14 10° NNE
Cosmos 2333 Rocket 4.0 18:22:28 10° WSW 18:27:15 27° NW 18:32:03 10° N
Cosmos 1603 4.0 18:22:21 10° S 18:27:36 42° ESE 18:30:06 27° NE
Cosmos 1633 Rocket 2.9 18:24:33 10° S 18:28:56 77° E 18:33:21 10° N
FengYun 1-2 T 4.4 18:25:14 10° SE 18:30:33 49° ENE 18:35:51 10° N
CENTAUR R/B 4.5 18:29:26 10° WNW 18:34:18 21° NNW 18:39:36 10° NNE
Cosmos 292 Rocket 4.0 18:30:06 10° S 18:34:35 43° ESE 18:35:32 38° ENE
Coronas F rocket 3.1 18:32:40 10° S 18:33:36 21° S 18:33:36 21° S
Cosmos 1455 2.4 18:32:09 10° NNW 18:35:57 72° W 18:39:45 10° S
USA 229 DEB 3.6 18:36:06 10° SSW 18:42:54 74° ESE 18:47:09 26° NE
USA 229 3.6 18:36:12 10° SSW 18:43:01 73° ESE 18:47:12 26° NE
Abrixas 4.0 18:40:41 10° WNW 18:42:57 28° NNW 18:42:57 28° NNW
Cosmos 1184 Rocket 3.6 18:43:47 10° SSW 18:47:03 52° WNW 18:48:43 25° NNW
Cosmos 1242 Rocket 4.4 18:43:45 10° N 18:44:49 19° N 18:44:49 19° N
SJ-6B 3.2 18:44:57 10° S 18:49:01 67° W 18:53:09 10° NNW
TRACE 4.5 18:48:56 72° NE 18:49:14 79° ESE 18:52:59 10° S
Cosmos 2195 Rocket 4.5 18:43:24 10° SSE 18:49:17 53° E 18:55:16 10° NNE
Spot 2 Rocket 3.4 18:44:36 10° SSE 18:49:33 62° ENE 18:54:33 10° N
Cosmos 1862 Rocket 4.1 18:46:54 10° N 18:49:59 40° NNE 18:49:59 40° NNE
Orbus 7S? 4.4 18:47:21 10° NW 18:51:41 78° NE 19:00:10 15° SE
Iridium 4 Rocket 2.9 18:49:14 10° S 18:53:42 90° NNW 18:57:11 15° N
SL-19 R/B 4.2 18:51:09 10° SSE 18:57:00 89° ENE 19:02:37 10° NNW
Cosmos 2237 Rocket 4.4 18:54:43 10° W 18:58:53 21° NW 19:03:07 10° N
Cosmos 2369 Rocket 2.7 18:56:23 10° NNW 19:01:00 41° NE 19:01:00 41° NE
H-2A ROCKET BODY 4.0 18:47:21 10° WSW 19:05:45 33° SSW 19:09:18 20° SSE
SL-16 R/B 3.5 19:01:42 10° SW 19:06:54 37° WNW 19:11:54 11° N
Cosmos 1417 Rocket 4.4 19:07:25 10° N 19:13:16 60° ENE 19:13:16 60° ENE
Resurs 01 Rocket 1.8 19:12:15 33° S 19:14:10 73° WSW 19:18:37 10° NNW
Cosmos 923 Rocket 4.1 19:10:04 10° SSW 19:15:15 70° WNW 19:17:00 42° N
Cosmos 1933 Rocket 3.7 19:12:11 10° SSW 19:16:31 71° W 19:16:31 71° W
Cosmos 1680 Rocket 3.5 19:16:26 10° SSW 19:21:39 80° WNW 19:22:05 73° NNW
Cosmos 1655 Rocket 3.9 19:16:38 10° S 19:22:59 74° E 19:24:06 60° NE
Lacrosse 4 Rocket 2.9 19:20:40 10° NW 19:24:20 33° WSW 19:25:16 29° SW
CZ-4C R/B 3.9 19:18:50 10° NNW 19:23:28 27° NNE 19:23:28 27° NNE
Cosmos 1627 Rocket 4.4 19:19:12 10° S 19:25:23 82° W 19:31:33 10° N
FENGYUN 3A 4.3 19:25:23 10° S 19:30:36 54° W 19:35:54 10° NNW
NOSS 3-1 (C) 3.8 19:28:47 10° SSW 19:32:51 47° S 19:32:51 47° S
USA 215 3.7 19:40:52 42° S 19:42:52 58° SW 19:49:21 10° NW
Cosmos 1943 4.3 19:38:50 10° SSW 19:41:55 34° SSW 19:41:55 34° SSW
ATLAS 3B R/B 4.3 19:42:34 10° NNW 19:45:53 20° N 19:45:53 20° N
Lacrosse 5 4.0 19:45:45 10° NNW 19:47:19 17° NNW 19:47:19 17° NNW
ATLAS 5 CENTAUR R/B 3.7 19:44:35 10° NNW 19:47:22 27° N 19:47:22 27° N
Cosmos 2026 Rocket 4.5 19:46:31 10° SSW 19:52:35 57° W 19:56:00 26° N
ALOS 4.5 19:58:22 10° SW 20:02:02 23° W 20:05:43 10° NW
Cosmos 1943 Rocket 4.3 20:01:29 10° NNW 20:02:44 17° NNW 20:02:44 17° NNW
